Regional Weather Roundup
Issued by NWS

Home | Current Version | Previous Version | Graphics & Text | Print | Product List | Glossary On
Versions: 1 2 3 4 5 6 7 8 9 10 11 12 13 14 15 16 17 18 19 20 21 22 23 24 25 26 27 28 29 30 31 32 33 34 35 36 37 38 39 40 41 42 43 44 45 46 47 48 49 50
204
ASUS44 KLIX 301607
RWRLA
LOUISIANA WEATHER ROUNDUP
NATIONAL WEATHER SERVICE NEW ORLEANS LA
1100 AM CDT MON MAR 30 2015

NOTE: "FAIR" INDICATES FEW OR NO CLOUDS BELOW 12,000 FEET WITH NO
      SIGNIFICANT WEATHER AND/OR OBSTRUCTIONS TO VISIBILITY.
      SKY/WX - SKY CONDITION AND SIGNIFICANT WEATHER.
      TMP - AIR TEMPERATURE.    DP   - DEWPOINT TEMPERATURE.
      RH  - RELATIVE HUMIDITY.  PRES - PRESSURE.
      HX  - HEAT INDEX.         WCI  - WIND CHILL INDEX.

*  THESE STATIONS ARE NOT NWS OR FAA STATIONS AND ARE NOT UNDER
   NWS QUALITY CONTROL.

LAZ040-048-061>063-065-066-069-301700-
SOUTHEAST LOUISIANA

CITY           SKY/WX    TMP DP  RH WIND       PRES   REMARKS
N.O. AUDUBON   NOT AVBL
N.O. INTL ARPT PTSUNNY   77  64  64 SW12      30.25F
N.O. LAKEFRONT SUNNY     74  63  68 NW7       30.26F
SLIDELL        PTSUNNY   76  62  62 W9        30.25S
BATON ROUGE    MOSUNNY   76  64  66 W9        30.25S
BOOTHVILLE     SUNNY     75  65  70 SW8       30.28S
BELLE CHASSE   PTSUNNY   76  62  62 W9G18     30.25F
BOGALUSA*        N/A     77  62  59 W10       30.26S
GALLIANO*      SUNNY     78  65  63 SW10      30.27S
NEW ROADS*     PTSUNNY   74  63  69 W9        30.25S
GONZALES*      FAIR      74  64  71 W8        30.25S
HAMMOND*       PTSUNNY   77  61  57 W12       30.26F
HOUMA*         MOSUNNY   79  66  65 SW6       30.26S
PORT FOURCHON* SUNNY     75  63  64 W8        30.30S

$$

LAZ041-044-053-054-301700-
SOUTHWEST LOUISIANA

CITY           SKY/WX    TMP DP  RH WIND       PRES   REMARKS
LAKE CHARLES   MOSUNNY   75  61  61 SW9       30.24R
LAFAYETTE      MOSUNNY   75  64  68 W9        30.25S
PATTERSON      MOSUNNY   73  64  73 N5        30.27S
SALT POINT       N/A     74  65  73 W5        30.25S
NEW IBERIA     PTSUNNY   76  65  68 W10       30.26S
CHENAULT AIRPK NOT AVBL

$$

LAZ027-028-301700-
CENTRAL LOUISIANA

CITY           SKY/WX    TMP DP  RH WIND       PRES   REMARKS
FORT POLK      PTSUNNY   73  62  68 W9        30.23R
ALEXANDRIA INT MOSUNNY   73  62  68 SW12      30.22S
ALEXANDRIA     PTSUNNY   71  60  68 W13       30.23F

$$

LAZ001-002-301700-
NORTHWEST LOUISIANA

CITY           SKY/WX    TMP DP  RH WIND       PRES   REMARKS
SHREVEPORT     CLOUDY    69  62  78 CALM      30.21S
BARKSDALE AFB  CLOUDY    69  61  75 VRB3      30.21S
DTN SHREVEPORT CLOUDY    69  61  75 SW6       30.21S

$$

LAZ014-016-301700-
NORTHEAST LOUISIANA

CITY           SKY/WX    TMP DP  RH WIND       PRES   REMARKS
MONROE         LGT RAIN  65  64  97 N3        30.24R FOG
TALLULAH       CLOUDY    68  61  78 VRB5      30.23S

$$




USA.gov is the U.S. government's official web portal to all federal, state and local government web resources and services.